Weather History for KCMD - March, 2014

Change the Weather History Date:

Friday, March 28, 2014

  Actual Average Record
Temperature  
Mean Temperature 58 °F -  
Max Temperature 64 °F - - ()
Min Temperature 53 °F - - ()
Degree Days  
Heating Degree Days 6    
Growing Degree Days 8 (Base 50)    
Moisture  
Dew Point 54 °F    
Average Humidity 88    
Maximum Humidity 98    
Minimum Humidity 70    
Precipitation  
Precipitation 0.21 in - - ()
Sea Level Pressure  
Sea Level Pressure 30.02 in    
Wind  
Wind Speed 9 mph (SE)    
Max Wind Speed 21 mph    
Max Gust Speed 26 mph    
Visibility 10 miles    
Events Rain    
T = Trace of Precipitation, MM = Missing Value Source: NWS Daily Summary

Daily Weather History Graph

Daily Weather History Graph

Search for Another Location

Airport or City:

Trip Planner

Search our weather history database for the weather conditions in past years. The results will help you decide how hot, cold, wet, or windy it might be!

Date:

Astronomy

Mar. 28, 2014 Rise Set
Actual Time 6:40 AM CDT 7:05 PM CDT
Civil Twilight 6:14 AM CDT 7:30 PM CDT
Nautical Twilight 5:45 AM CDT 8:00 PM CDT
Astronomical Twilight 5:15 AM CDT 8:30 PM CDT
Moon 5:04 AM CDT (3/28) 5:05 PM CDT (3/28)
Length of Visible Light 13h 15m
Length of Day
12h 25m
Waning Crescent, 6% of the Moon is Illuminated
Mar 28
Waning Crescent
Mar 30
New
Apr 7
First Quarter
Apr 15
Full
Apr 22
Last Quarter

Hourly Weather History & Observations

Time (CDT) Temp. Dew Point Humidity Pressure Visibility Wind Dir Wind Speed Gust Speed Precip Events Conditions
12:15 AM 55.2 °F 52.0 °F 89% 30.05 in 10.0 mi SSE 10.4 mph - N/A   Drizzle
12:35 AM 54.9 °F 52.3 °F 91% 30.04 in 10.0 mi SE 9.2 mph 17.3 mph N/A   Light Drizzle
12:55 AM 54.7 °F 52.9 °F 94% 30.06 in 10.0 mi SSE 8.1 mph - N/A   Overcast
1:15 AM 54.7 °F 53.2 °F 95% 30.06 in 10.0 mi SSE 10.4 mph - N/A   Drizzle
1:35 AM 54.7 °F 53.2 °F 95% 30.04 in 7.0 mi South 20.7 mph 26.5 mph 0.01 in Rain Light Rain
1:55 AM 54.5 °F 52.9 °F 94% 30.05 in 7.0 mi South 16.1 mph 24.2 mph 0.02 in Rain Rain
2:15 AM 54.1 °F 52.7 °F 95% 30.04 in 7.0 mi SSE 12.7 mph 18.4 mph 0.02 in Rain Rain
2:35 AM 54.0 °F 52.7 °F 95% 30.04 in 7.0 mi South 12.7 mph 19.6 mph 0.04 in Rain Rain
2:55 AM 53.8 °F 52.9 °F 97% 30.05 in 3.0 mi South 13.8 mph - 0.15 in Rain Heavy Rain
3:15 AM 54.1 °F 53.1 °F 96% 30.04 in 10.0 mi South 13.8 mph 17.3 mph 0.01 in Rain Rain
3:35 AM 54.0 °F 53.1 °F 97% 29.93 in 4.0 mi South 11.5 mph 26.5 mph 0.03 in Rain Light Rain
3:55 AM 54.0 °F 53.4 °F 98% 30.00 in 10.0 mi SSE 15.0 mph 24.2 mph 0.04 in   Overcast
4:15 AM 54.5 °F 53.6 °F 97% 29.99 in 10.0 mi SSE 12.7 mph 21.9 mph N/A   Overcast
4:35 AM 54.7 °F 53.8 °F 97% 29.99 in 10.0 mi SSE 15.0 mph 20.7 mph N/A   Overcast
4:55 AM 55.0 °F 54.0 °F 96% 29.96 in 10.0 mi SSE 9.2 mph 17.3 mph N/A   Overcast
5:15 AM 55.2 °F 54.0 °F 96% 29.97 in 10.0 mi SSE 12.7 mph 16.1 mph N/A   Overcast
5:35 AM 55.6 °F 54.1 °F 95% 29.99 in 10.0 mi SSE 15.0 mph 18.4 mph N/A   Overcast
5:55 AM 55.8 °F 54.5 °F 96% 30.00 in 10.0 mi SSE 9.2 mph - N/A   Overcast
6:15 AM 55.8 °F 54.5 °F 96% 30.01 in 10.0 mi South 10.4 mph - N/A   Overcast
6:35 AM 55.9 °F 54.5 °F 95% 30.00 in 10.0 mi SSE 12.7 mph 19.6 mph N/A   Overcast
7:15 AM 56.1 °F 54.5 °F 94% 30.02 in 10.0 mi SSE 8.1 mph - N/A   Mostly Cloudy
7:35 AM 55.9 °F 54.5 °F 95% 30.03 in 10.0 mi SSE 6.9 mph - N/A   Mostly Cloudy
7:55 AM 55.9 °F 54.5 °F 95% 30.04 in 10.0 mi SSE 6.9 mph - N/A   Overcast
8:15 AM 56.3 °F 54.5 °F 94% 30.03 in 10.0 mi SE 4.6 mph - N/A   Mostly Cloudy
8:35 AM 56.1 °F 54.5 °F 94% 30.04 in 10.0 mi SSE 6.9 mph - N/A   Mostly Cloudy
8:55 AM 56.1 °F 54.3 °F 94% 30.04 in 10.0 mi SSE 8.1 mph - N/A   Mostly Cloudy
9:15 AM 56.1 °F 54.3 °F 94% 30.05 in 10.0 mi SE 6.9 mph - N/A   Mostly Cloudy
9:35 AM 56.3 °F 54.5 °F 94% 30.05 in 10.0 mi SSE 5.8 mph - N/A   Overcast
9:55 AM 56.3 °F 54.5 °F 94% 30.05 in 10.0 mi SSE 5.8 mph - N/A   Overcast
10:15 AM 56.7 °F 54.7 °F 93% 30.06 in 10.0 mi SSE 5.8 mph - N/A   Overcast
10:35 AM 56.8 °F 54.9 °F 93% 30.05 in 10.0 mi SE 8.1 mph - N/A   Mostly Cloudy
10:55 AM 57.7 °F 55.4 °F 92% 30.05 in 10.0 mi SSE 6.9 mph - N/A   Scattered Clouds
11:15 AM 58.3 °F 55.6 °F 91% 30.06 in 10.0 mi SSE 6.9 mph - N/A   Mostly Cloudy
11:35 AM 58.5 °F 55.6 °F 90% 30.07 in 10.0 mi South 10.4 mph - N/A   Overcast
11:55 AM 58.8 °F 55.6 °F 89% 30.06 in 10.0 mi South 5.8 mph 16.1 mph N/A   Overcast
12:15 PM 59.5 °F 55.8 °F 87% 30.04 in 10.0 mi SSE 4.6 mph - N/A   Overcast
12:35 PM 60.1 °F 55.8 °F 86% 30.05 in 10.0 mi South 6.9 mph - N/A   Overcast
12:55 PM 60.3 °F 55.8 °F 85% 30.04 in 10.0 mi South 10.4 mph - N/A   Overcast
1:15 PM 60.8 °F 55.6 °F 83% 30.04 in 10.0 mi South 8.1 mph - N/A   Mostly Cloudy
1:35 PM 61.0 °F 55.2 °F 81% 30.04 in 10.0 mi SSE 5.8 mph - N/A   Overcast
1:55 PM 61.3 °F 55.6 °F 81% 30.04 in 10.0 mi SSE 5.8 mph - N/A   Mostly Cloudy
2:15 PM 62.4 °F 55.2 °F 77% 30.04 in 10.0 mi SE 6.9 mph - N/A   Mostly Cloudy
2:35 PM 63.3 °F 55.2 °F 75% 30.03 in 10.0 mi SSE 5.8 mph - N/A   Scattered Clouds
2:55 PM 63.7 °F 55.2 °F 74% 30.01 in 10.0 mi Calm Calm - N/A   Scattered Clouds
3:15 PM 63.9 °F 55.4 °F 74% 30.01 in 10.0 mi SSE 3.5 mph - N/A   Scattered Clouds
3:35 PM 64.8 °F 55.4 °F 72% 30.01 in 10.0 mi South 8.1 mph - N/A   Scattered Clouds
3:55 PM 64.8 °F 55.0 °F 71% 30.01 in 10.0 mi South 4.6 mph - N/A   Scattered Clouds
4:15 PM 64.8 °F 54.9 °F 70% 30.00 in 10.0 mi South 3.5 mph - N/A   Scattered Clouds
4:35 PM 64.4 °F 54.9 °F 71% 29.99 in 10.0 mi SE 4.6 mph - N/A   Clear
4:55 PM 64.0 °F 54.9 °F 72% 29.99 in 10.0 mi East 5.8 mph - N/A   Clear
5:15 PM 64.0 °F 55.2 °F 73% 29.99 in 10.0 mi ESE 6.9 mph - N/A   Scattered Clouds
5:35 PM 64.0 °F 55.0 °F 73% 29.99 in 10.0 mi ESE 5.8 mph - N/A   Scattered Clouds
5:55 PM 63.7 °F 54.9 °F 73% 29.99 in 10.0 mi ESE 4.6 mph - N/A   Scattered Clouds
6:15 PM 63.9 °F 54.7 °F 72% 29.99 in 10.0 mi SE 4.6 mph - N/A   Scattered Clouds
6:35 PM 63.1 °F 54.9 °F 74% 30.00 in 10.0 mi ESE 4.6 mph - N/A   Scattered Clouds
6:55 PM 62.1 °F 55.0 °F 78% 30.00 in 10.0 mi ESE 4.6 mph - N/A   Scattered Clouds
7:15 PM 60.6 °F 54.9 °F 81% 29.99 in 10.0 mi ESE 3.5 mph - N/A   Scattered Clouds
7:35 PM 59.5 °F 54.7 °F 84% 29.98 in 10.0 mi Calm Calm - N/A   Clear
7:55 PM 59.0 °F 54.5 °F 85% 29.98 in 10.0 mi East 3.5 mph - N/A   Clear
8:15 PM 58.5 °F 54.5 °F 87% 29.99 in 10.0 mi ENE 3.5 mph - N/A   Clear
8:35 PM 57.9 °F 54.5 °F 88% 29.99 in 10.0 mi Calm Calm - N/A   Clear
8:55 PM 57.7 °F 54.5 °F 89% 30.01 in 10.0 mi ESE 3.5 mph - N/A   Clear
9:15 PM 57.4 °F 54.3 °F 90% 30.01 in 10.0 mi ENE 3.5 mph - N/A   Clear
9:35 PM 57.2 °F 54.1 °F 89% 30.02 in 10.0 mi ESE 3.5 mph - N/A   Clear
9:55 PM 56.8 °F 54.1 °F 91% 30.02 in 10.0 mi Calm Calm - N/A   Clear
10:15 PM 56.7 °F 54.0 °F 91% 30.02 in 10.0 mi NE 3.5 mph - N/A   Clear
10:35 PM 55.8 °F 53.6 °F 92% 30.02 in 10.0 mi NE 3.5 mph - N/A   Mostly Cloudy
10:55 PM 55.9 °F 54.0 °F 93% 30.01 in 10.0 mi East 4.6 mph - N/A   Overcast
11:15 PM 56.8 °F 54.5 °F 92% 30.00 in 10.0 mi East 6.9 mph - N/A   Overcast
11:35 PM 56.8 °F 54.1 °F 91% 29.98 in 10.0 mi East 8.1 mph - N/A   Mostly Cloudy
11:55 PM 57.0 °F 54.1 °F 90% 29.96 in 10.0 mi East 4.6 mph - N/A   Mostly Cloudy